Location: Gugi
(45.4667°N, 11.1000°E)
Time: 07:32:10
(UTC+00:00)

SL-16 R/B - Pass Details

Date: 17 November 2019
Orbit: 842 x 846 km, 71.0° (Epoch: 13 December)

Event Time Altitude Azimuth Distance (km) Brightness Sun altitude
Rises 17:59:54 0° 176° (S) 3,387 5.3 -23.7°
Reaches altitude 10° 18:02:32 10° 168° (SSE) 2,457 4.5 -24.2°
Enters shadow 18:03:45 16° 160° (SSE) 2,064 4.0 -24.4°
